| time (UTC) | temp C | wind direction | speed KPH | gust KPH | rain 1hr cm | rain 24hr cm | rain mn cm | humidity % | barometer mb |
| 20260503212204 | 27 | 28 | 4.8 | 9.7 | 0.00 | 0.00 | 0.00 | 42 | 1009.9 |
| 20260503211703 | 27 | 283 | 3.2 | 3.2 | 0.00 | 0.00 | 0.00 | 42 | 1009.9 |
| 20260503211204 | 27 | 153 | 0.0 | 8.0 | 0.00 | 0.00 | 0.00 | 41 | 1009.9 |
| 20260503210204 | 27 | 104 | 0.0 | 3.2 | 0.00 | 0.00 | 0.00 | 42 | 1010.1 |
| 20260503205704 | 27 | 93 | 0.0 | 8.0 | 0.00 | 0.00 | 0.00 | 39 | 1010.2 |
| 20260503204704 | 27 | 311 | 1.6 | 8.0 | 0.00 | 0.00 | 0.00 | 39 | 1010.3 |
| 20260503204203 | 27 | 115 | 0.0 | 1.6 | 0.00 | 0.00 | 0.00 | 40 | 1010.4 |
| 20260503203703 | 27 | 109 | 3.2 | 9.7 | 0.00 | 0.00 | 0.00 | 40 | 1010.5 |
| 20260503203204 | 27 | 7 | 1.6 | 9.7 | 0.00 | 0.00 | 0.00 | 42 | 1010.6 |
| 20260503202704 | 27 | 113 | 1.6 | 8.0 | 0.00 | 0.00 | 0.00 | 41 | 1010.7 |
| 20260503201704 | 27 | 111 | 1.6 | 8.0 | 0.00 | 0.00 | 0.00 | 41 | 1010.7 |
| 20260503201204 | 27 | 32 | 1.6 | 9.7 | 0.00 | 0.00 | 0.00 | 41 | 1010.8 |
| 20260503200703 | 27 | 288 | 9.7 | 9.7 | 0.00 | 0.00 | 0.00 | 40 | 1010.9 |
| 20260503200204 | 27 | 351 | 1.6 | 9.7 | 0.00 | 0.00 | 0.00 | 44 | 1010.9 |
| 20260503195704 | 26 | 280 | 1.6 | 8.0 | 0.00 | 0.00 | 0.00 | 43 | 1011.0 |
| 20260503194704 | 26 | 45 | 3.2 | 8.0 | 0.00 | 0.00 | 0.00 | 44 | 1011.2 |
| 20260503194205 | 26 | 92 | 1.6 | 8.0 | 0.00 | 0.00 | 0.00 | 44 | 1011.3 |
| 20260503193704 | 26 | 113 | 4.8 | 9.7 | 0.00 | 0.00 | 0.00 | 44 | 1011.4 |
| 20260503193204 | 26 | 100 | 1.6 | 8.0 | 0.00 | 0.00 | 0.00 | 42 | 1011.4 |
| 20260503192704 | 26 | 223 | 0.0 | 3.2 | 0.00 | 0.00 | 0.00 | 42 | 1011.5 |
| 20260503192204 | 26 | 86 | 0.0 | 3.2 | 0.00 | 0.00 | 0.00 | 46 | 1011.6 |
| 20260503191704 | 25 | 271 | 1.6 | 8.0 | 0.00 | 0.00 | 0.00 | 43 | 1011.7 |
| 20260503191203 | 25 | 238 | 0.0 | 3.2 | 0.00 | 0.00 | 0.00 | 46 | 1011.7 |
| 20260503190704 | 25 | 278 | 4.8 | 8.0 | 0.00 | 0.00 | 0.00 | 43 | 1011.8 |
| 20260503185703 | 25 | 293 | 4.8 | 9.7 | 0.00 | 0.00 | 0.00 | 45 | 1011.8 |
| 20260503185204 | 25 | 292 | 4.8 | 9.7 | 0.00 | 0.00 | 0.00 | 44 | 1011.9 |
| 20260503184704 | 25 | 341 | 1.6 | 8.0 | 0.00 | 0.00 | 0.00 | 45 | 1012.0 |
| 20260503183704 | 25 | 299 | 1.6 | 8.0 | 0.00 | 0.00 | 0.00 | 47 | 1012.2 |
| 20260503183204 | 25 | 101 | 1.6 | 8.0 | 0.00 | 0.00 | 0.00 | 45 | 1012.1 |
| 20260503182704 | 25 | 139 | 3.2 | 8.0 | 0.00 | 0.00 | 0.00 | 46 | 1012.2 |
| 20260503182204 | 25 | 293 | 1.6 | 9.7 | 0.00 | 0.00 | 0.00 | 47 | 1012.2 |
| 20260503181704 | 25 | 4 | 3.2 | 8.0 | 0.00 | 0.00 | 0.00 | 47 | 1012.2 |
| 20260503181205 | 24 | 49 | 3.2 | 8.0 | 0.00 | 0.00 | 0.00 | 49 | 1012.3 |
| 20260503180704 | 24 | 225 | 3.2 | 8.0 | 0.00 | 0.00 | 0.00 | 49 | 1012.3 |
| 20260503175204 | 24 | 328 | 1.6 | 9.7 | 0.00 | 0.00 | 0.00 | 51 | 1012.4 |
| 20260503174704 | 24 | 293 | 1.6 | 3.2 | 0.00 | 0.00 | 0.00 | 51 | 1012.4 |
| 20260503174204 | 23 | 112 | 0.0 | 1.6 | 0.00 | 0.00 | 0.00 | 55 | 1012.4 |
| 20260503173704 | 23 | 145 | 0.0 | 9.7 | 0.00 | 0.00 | 0.00 | 52 | 1012.5 |
| 20260503173204 | 22 | 331 | 1.6 | 3.2 | 0.00 | 0.00 | 0.00 | 56 | 1012.6 |
| 20260503172703 | 22 | 334 | 0.0 | 8.0 | 0.00 | 0.00 | 0.00 | 56 | 1012.6 |
| 20260503172203 | 22 | 333 | 3.2 | 8.0 | 0.00 | 0.00 | 0.00 | 55 | 1012.6 |
| 20260503171203 | 21 | 329 | 1.6 | 8.0 | 0.00 | 0.00 | 0.00 | 57 | 1012.7 |
| 20260503170204 | 21 | 105 | 3.2 | 8.0 | 0.00 | 0.00 | 0.00 | 59 | 1012.9 |
| 20260503160205 | 19 | 354 | 0.0 | 3.2 | 0.00 | 0.00 | 0.00 | 64 | 1013.1 |
| 20260503150704 | 14 | 26 | 0.0 | 1.6 | 0.00 | 0.00 | 0.00 | 81 | 1013.2 |
| 20260503150204 | 13 | 25 | 0.0 | 3.2 | 0.00 | 0.00 | 0.00 | 82 | 1013.2 |
| 20260503140204 | 11 | 355 | 0.0 | 0.0 | 0.00 | 0.00 | 0.00 | 91 | 1013.0 |
| 20260503131204 | 10 | 355 | 0.0 | 0.0 | 0.00 | 0.00 | 0.00 | 90 | 1012.8 |
| 20260503130705 | 10 | 355 | 0.0 | 0.0 | 0.00 | 0.00 | 0.00 | 90 | 1012.8 |
| 20260503130204 | 10 | 355 | 0.0 | 0.0 | 0.00 | 0.00 | 0.00 | 90 | 1012.9 |
| 20260503120204 | 10 | 355 | 0.0 | 0.0 | 0.00 | 0.00 | 0.00 | 88 | 1012.9 |
| 20260503110704 | 11 | 355 | 0.0 | 0.0 | 0.00 | 0.00 | 0.00 | 87 | 1013.0 |
| 20260503110204 | 11 | 355 | 0.0 | 0.0 | 0.00 | 0.00 | 0.00 | 87 | 1013.1 |
| 20260503100204 | 11 | 355 | 0.0 | 0.0 | 0.00 | 0.00 | 0.00 | 85 | 1013.1 |
| 20260503090204 | 12 | 355 | 0.0 | 0.0 | 0.00 | 0.00 | 0.00 | 81 | 1013.2 |
| 20260503081203 | 12 | 355 | 0.0 | 0.0 | 0.00 | 0.00 | 0.00 | 78 | 1013.1 |
| 20260503080705 | 12 | 355 | 0.0 | 0.0 | 0.00 | 0.00 | 0.00 | 77 | 1013.1 |
| 20260503072704 | 13 | 355 | 0.0 | 0.0 | 0.00 | 0.00 | 0.00 | 75 | 1013.0 |
| 20260503071204 | 13 | 355 | 0.0 | 0.0 | 0.00 | 0.00 | 0.00 | 75 | 1013.0 |
| 20260503070204 | 14 | 355 | 0.0 | 0.0 | 0.00 | 0.00 | 0.00 | 74 | 1012.9 |
| 20260503060204 | 15 | 355 | 0.0 | 0.0 | 0.00 | 0.00 | 0.00 | 69 | 1012.9 |
| 20260503054204 | 15 | 355 | 0.0 | 0.0 | 0.00 | 0.00 | 0.00 | 69 | 1012.8 |
| 20260503053704 | 15 | 355 | 0.0 | 0.0 | 0.00 | 0.00 | 0.00 | 69 | 1012.8 |
| 20260503053204 | 15 | 355 | 0.0 | 0.0 | 0.00 | 0.00 | 0.00 | 69 | 1012.9 |
| 20260503052703 | 16 | 355 | 0.0 | 0.0 | 0.00 | 0.00 | 0.00 | 68 | 1012.8 |
| 20260503052204 | 16 | 355 | 0.0 | 0.0 | 0.00 | 0.00 | 0.00 | 69 | 1012.8 |
| 20260503051704 | 16 | 355 | 0.0 | 0.0 | 0.00 | 0.00 | 0.00 | 66 | 1012.8 |
| 20260503051203 | 16 | 355 | 0.0 | 0.0 | 0.00 | 0.00 | 0.00 | 62 | 1012.8 |
| 20260503050204 | 16 | 355 | 0.0 | 0.0 | 0.00 | 0.00 | 0.00 | 63 | 1012.8 |
| 20260503045704 | 16 | 355 | 0.0 | 0.0 | 0.00 | 0.00 | 0.00 | 62 | 1012.8 |
| 20260503045203 | 17 | 355 | 0.0 | 0.0 | 0.00 | 0.00 | 0.00 | 61 | 1012.7 |
| 20260503044704 | 17 | 355 | 0.0 | 0.0 | 0.00 | 0.00 | 0.00 | 59 | 1012.7 |
| 20260503044203 | 17 | 355 | 0.0 | 0.0 | 0.00 | 0.00 | 0.00 | 58 | 1012.7 |
| 20260503043704 | 17 | 355 | 0.0 | 0.0 | 0.00 | 0.00 | 0.00 | 57 | 1012.6 |
| 20260503043204 | 17 | 355 | 0.0 | 0.0 | 0.00 | 0.00 | 0.00 | 58 | 1012.6 |
| 20260503042704 | 17 | 355 | 0.0 | 0.0 | 0.00 | 0.00 | 0.00 | 57 | 1012.5 |
| 20260503042203 | 18 | 355 | 0.0 | 0.0 | 0.00 | 0.00 | 0.00 | 55 | 1012.5 |
| 20260503041703 | 18 | 355 | 0.0 | 1.6 | 0.00 | 0.00 | 0.00 | 54 | 1012.4 |
| 20260503040704 | 18 | 355 | 0.0 | 0.0 | 0.00 | 0.00 | 0.00 | 54 | 1012.3 |
| 20260503040204 | 18 | 355 | 0.0 | 0.0 | 0.00 | 0.00 | 0.00 | 54 | 1012.3 |
| 20260503035703 | 18 | 355 | 0.0 | 1.6 | 0.00 | 0.00 | 0.00 | 54 | 1012.2 |
| 20260503035203 | 18 | 355 | 0.0 | 1.6 | 0.00 | 0.00 | 0.00 | 54 | 1012.1 |
| 20260503034204 | 19 | 109 | 1.6 | 3.2 | 0.00 | 0.00 | 0.00 | 51 | 1012.0 |
| 20260503033704 | 19 | 345 | 0.0 | 3.2 | 0.00 | 0.00 | 0.00 | 52 | 1011.8 |
| 20260503032204 | 20 | 344 | 0.0 | 3.2 | 0.00 | 0.00 | 0.00 | 50 | 1011.7 |
| 20260503031204 | 20 | 319 | 0.0 | 3.2 | 0.00 | 0.00 | 0.00 | 50 | 1011.6 |
| 20260503030704 | 20 | 276 | 1.6 | 9.7 | 0.00 | 0.00 | 0.00 | 49 | 1011.6 |
| 20260503030203 | 20 | 161 | 1.6 | 3.2 | 0.00 | 0.00 | 0.00 | 50 | 1011.6 |
| 20260503025704 | 20 | 343 | 0.0 | 3.2 | 0.00 | 0.00 | 0.00 | 50 | 1011.5 |
| 20260503025203 | 21 | 344 | 1.6 | 8.0 | 0.00 | 0.00 | 0.00 | 50 | 1011.5 |
| 20260503024704 | 21 | 330 | 6.4 | 9.7 | 0.00 | 0.00 | 0.00 | 49 | 1011.4 |
| 20260503024203 | 21 | 333 | 0.0 | 3.2 | 0.00 | 0.00 | 0.00 | 51 | 1011.4 |
| 20260503023204 | 21 | 329 | 1.6 | 3.2 | 0.00 | 0.00 | 0.00 | 52 | 1011.4 |
| 20260503022704 | 21 | 307 | 1.6 | 3.2 | 0.00 | 0.00 | 0.00 | 52 | 1011.4 |
| 20260503022204 | 22 | 87 | 1.6 | 3.2 | 0.00 | 0.00 | 0.00 | 54 | 1011.4 |
| 20260503021704 | 22 | 302 | 0.0 | 3.2 | 0.00 | 0.00 | 0.00 | 53 | 1011.3 |
| 20260503021203 | 22 | 296 | 3.2 | 8.0 | 0.00 | 0.00 | 0.00 | 52 | 1011.3 |
| 20260503020704 | 22 | 37 | 0.0 | 8.0 | 0.00 | 0.00 | 0.00 | 53 | 1011.3 |
| 20260503020204 | 22 | 238 | 1.6 | 3.2 | 0.00 | 0.00 | 0.00 | 52 | 1011.3 |
| 20260503015704 | 22 | 157 | 1.6 | 8.0 | 0.00 | 0.00 | 0.00 | 52 | 1011.3 |
| 20260503015204 | 22 | 349 | 4.8 | 9.7 | 0.00 | 0.00 | 0.00 | 52 | 1011.3 |
| 20260503014704 | 22 | 94 | 1.6 | 3.2 | 0.00 | 0.00 | 0.00 | 52 | 1011.3 |
| 20260503014204 | 22 | 280 | 0.0 | 9.7 | 0.00 | 0.00 | 0.00 | 52 | 1011.3 |
| 20260503013704 | 22 | 81 | 1.6 | 8.0 | 0.00 | 0.00 | 0.00 | 52 | 1011.3 |
| 20260503013204 | 22 | 290 | 8.0 | 9.7 | 0.00 | 0.00 | 0.00 | 52 | 1011.3 |
| 20260503012704 | 22 | 284 | 3.2 | 8.0 | 0.00 | 0.00 | 0.00 | 52 | 1011.3 |
| 20260503012204 | 23 | 52 | 0.0 | 8.0 | 0.00 | 0.00 | 0.00 | 52 | 1011.4 |
| 20260503011704 | 23 | 51 | 3.2 | 12.9 | 0.00 | 0.00 | 0.00 | 53 | 1011.3 |
| 20260503011204 | 23 | 31 | 3.2 | 8.0 | 0.00 | 0.00 | 0.00 | 53 | 1011.3 |
| 20260503010704 | 23 | 11 | 0.0 | 3.2 | 0.00 | 0.00 | 0.00 | 53 | 1011.3 |
| 20260503010204 | 23 | 321 | 8.0 | 16.1 | 0.00 | 0.00 | 0.00 | 52 | 1011.3 |
| 20260503005704 | 23 | 177 | 1.6 | 8.0 | 0.00 | 0.00 | 0.00 | 52 | 1011.4 |
| 20260503005203 | 23 | 336 | 6.4 | 16.1 | 0.00 | 0.00 | 0.00 | 52 | 1011.4 |
| 20260503004704 | 23 | 339 | 1.6 | 9.7 | 0.00 | 0.00 | 0.00 | 52 | 1011.5 |
| 20260503004205 | 23 | 301 | 6.4 | 12.9 | 0.00 | 0.00 | 0.00 | 52 | 1011.5 |
| 20260503003703 | 23 | 289 | 3.2 | 8.0 | 0.00 | 0.00 | 0.00 | 53 | 1011.5 |
| 20260503002704 | 23 | 17 | 0.0 | 8.0 | 0.00 | 0.00 | 0.00 | 52 | 1011.5 |
| 20260503002204 | 23 | 317 | 1.6 | 8.0 | 0.00 | 0.00 | 0.00 | 52 | 1011.6 |
| 20260503001204 | 23 | 29 | 0.0 | 8.0 | 0.00 | 0.00 | 0.00 | 52 | 1011.6 |
| 20260503000205 | 23 | 300 | 1.6 | 8.0 | 0.00 | 0.00 | 0.00 | 52 | 1011.6 |
| 20260502235704 | 23 | 96 | 9.7 | 12.9 | 0.00 | 0.00 | 0.00 | 51 | 1011.6 |
| 20260502234703 | 23 | 28 | 8.0 | 12.9 | 0.00 | 0.00 | 0.00 | 53 | 1011.8 |
| 20260502234204 | 23 | 98 | 9.7 | 16.1 | 0.00 | 0.00 | 0.00 | 53 | 1011.8 |
| 20260502233703 | 23 | 23 | 1.6 | 8.0 | 0.00 | 0.00 | 0.00 | 53 | 1011.8 |
| 20260502233204 | 23 | 296 | 8.0 | 9.7 | 0.00 | 0.00 | 0.00 | 52 | 1012.0 |
| 20260502232704 | 23 | 294 | 11.3 | 12.9 | 0.00 | 0.00 | 0.00 | 52 | 1012.0 |
| 20260502232204 | 23 | 292 | 3.2 | 12.9 | 0.00 | 0.00 | 0.00 | 52 | 1012.1 |
| 20260502230704 | 23 | 117 | 4.8 | 11.3 | 0.00 | 0.00 | 0.00 | 50 | 1012.4 |
| 20260502230204 | 23 | 9 | 8.0 | 12.9 | 0.00 | 0.00 | 0.00 | 49 | 1012.5 |
| 20260502225204 | 23 | 279 | 1.6 | 9.7 | 0.00 | 0.00 | 0.00 | 50 | 1012.6 |
| 20260502224704 | 23 | 302 | 3.2 | 8.0 | 0.00 | 0.00 | 0.00 | 49 | 1012.6 |
| 20260502224205 | 23 | 4 | 6.4 | 9.7 | 0.00 | 0.00 | 0.00 | 49 | 1012.7 |
| 20260502223704 | 23 | 339 | 8.0 | 9.7 | 0.00 | 0.00 | 0.00 | 49 | 1012.8 |
| 20260502223204 | 23 | 297 | 11.3 | 16.1 | 0.00 | 0.00 | 0.00 | 48 | 1012.8 |
| 20260502222204 | 23 | 297 | 4.8 | 9.7 | 0.00 | 0.00 | 0.00 | 50 | 1013.0 |
| 20260502221703 | 23 | 295 | 4.8 | 8.0 | 0.00 | 0.00 | 0.00 | 51 | 1013.1 |
| 20260502221204 | 23 | 91 | 4.8 | 16.1 | 0.00 | 0.00 | 0.00 | 50 | 1013.1 |
| 20260502215704 | 23 | 118 | 6.4 | 12.9 | 0.00 | 0.00 | 0.00 | 53 | 1013.2 |
| 20260502214204 | 22 | 338 | 1.6 | 8.0 | 0.00 | 0.00 | 0.00 | 58 | 1013.4 |
| 20260502213705 | 22 | 270 | 1.6 | 8.0 | 0.00 | 0.00 | 0.00 | 58 | 1013.5 |
| 20260502213206 | 22 | 303 | 3.2 | 8.0 | 0.00 | 0.00 | 0.00 | 58 | 1013.6 |
| 20260502212704 | 22 | 332 | 3.2 | 8.0 | 0.00 | 0.00 | 0.00 | 59 | 1013.5 |